FW0727 Weather Reports


Display with metric or nautical units.
time (UTC)temp
F
wind
direction
speed
MPH
gust
MPH
rain 1hr
in
rain 24hr
in
rain mn
in
humidity
%
barometer
mb
20260506104211 74 0.0 0.0 0.00 0.00 0.00 30 1013.6
20260506103626 74 0.0 0.0 0.00 0.00 0.00 30 1013.7
20260506103040 74 0.0 0.0 0.00 0.00 0.00 31 1013.6
20260506102456 74 0.0 0.0 0.00 0.00 0.00 29 1013.7
20260506101911 73 0.0 0.0 0.00 0.00 0.00 29 1013.7
20260506101326 74 0.0 0.0 0.00 0.00 0.00 29 1013.7
20260506100742 74 0.0 0.0 0.00 0.00 0.00 29 1013.6
20260506100149 74 0.0 0.0 0.00 0.00 0.00 29 1013.7
20260506095026 73 0.0 0.0 0.00 0.00 0.00 31 1013.8
20260506093910 72 0.0 0.0 0.00 0.00 0.00 31 1013.9
20260506093325 73 0.0 0.0 0.00 0.00 0.00 33 1013.9
20260506092211 72 0.0 0.0 0.00 0.00 0.00 33 1014.0
20260506091626 71 0.0 0.0 0.00 0.00 0.00 33 1014.0
20260506091041 71 0.0 0.0 0.00 0.00 0.00 31 1014.0
20260506090451 72 0.0 0.0 0.00 0.00 0.00 33 1013.9
20260506085906 71 0.0 0.0 0.00 0.00 0.00 34 1014.0
20260506085320 71 0.0 0.0 0.00 0.00 0.00 34 1014.0
20260506084735 70 0.0 0.0 0.00 0.00 0.00 34 1014.0
20260506084150 71 0.0 0.0 0.00 0.00 0.00 35 1014.0
20260506083556 71 0.0 0.0 0.00 0.00 0.00 36 1014.0
20260506083011 70 0.0 0.0 0.00 0.00 0.00 36 1014.0
20260506082426 70 0.0 0.0 0.00 0.00 0.00 35 1014.0
20260506081840 69 0.0 0.0 0.00 0.00 0.00 36 1014.0
20260506081255 69 0.0 0.0 0.00 0.00 0.00 35 1014.0
20260506080709 69 0.0 0.0 0.00 0.00 0.00 36 1014.0
20260506080124 69 0.0 0.0 0.00 0.00 0.00 37 1014.0
20260506073240 68 0.0 0.0 0.00 0.00 0.00 38 1014.1
20260506072646 67 0.0 0.0 0.00 0.00 0.00 38 1014.1
20260506072102 66 0.0 0.0 0.00 0.00 0.00 37 1014.2
20260506071508 66 0.0 0.0 0.00 0.00 0.00 37 1014.1
20260506070923 66 0.0 0.0 0.00 0.00 0.00 37 1014.1
20260506070338 66 0.0 0.0 0.00 0.00 0.00 37 1014.1
20260506062314 65 0.0 0.0 0.00 0.00 0.00 40 1014.2
20260506061730 64 0.0 0.0 0.00 0.00 0.00 41 1014.1
20260506061142 64 0.0 0.0 0.00 0.00 0.00 41 1014.2
20260506060557 63 0.0 0.0 0.00 0.00 0.00 44 1014.1
20260506051409 57 0.0 0.0 0.00 0.00 0.00 50 1014.3
20260506050825 56 0.0 0.0 0.00 0.00 0.00 50 1014.3
20260506050240 56 0.0 0.0 0.00 0.00 0.00 50 1014.3
20260506045111 55 0.0 0.0 0.00 0.00 0.00 52 1014.2
20260506044526 54 0.0 0.0 0.00 0.00 0.00 52 1014.2
20260506043941 53 0.0 0.0 0.00 0.00 0.00 52 1014.2
20260506043356 52 0.0 0.0 0.00 0.00 0.00 53 1014.2
20260506042811 51 0.0 0.0 0.00 0.00 0.00 53 1014.2
20260506042226 51 0.0 0.0 0.00 0.00 0.00 54 1014.2
20260506041641 50 0.0 0.0 0.00 0.00 0.00 54 1014.2
20260506041052 50 0.0 0.0 0.00 0.00 0.00 55 1014.1
20260506040507 49 0.0 0.0 0.00 0.00 0.00 55 1014.2
20260506035922 49 0.0 0.0 0.00 0.00 0.00 56 1014.1
20260506035338 49 0.0 0.0 0.00 0.00 0.00 56 1014.1
20260506034753 49 0.0 0.0 0.00 0.00 0.00 56 1014.0
20260506034208 48 0.0 0.0 0.00 0.00 0.00 56 1014.0
20260506033624 48 0.0 0.0 0.00 0.00 0.00 57 1014.0
20260506033039 48 0.0 0.0 0.00 0.00 0.00 57 1014.0
20260506032457 48 0.0 0.0 0.00 0.00 0.00 57 1014.0
20260506031913 48 0.0 0.0 0.00 0.00 0.00 57 1014.0
20260506031328 48 0.0 0.0 0.00 0.00 0.00 56 1013.9
20260506030743 48 0.0 0.0 0.00 0.00 0.00 56 1013.9
20260506030159 48 0.0 0.0 0.00 0.00 0.00 56 1013.8
20260506025044 48 0.0 0.0 0.00 0.00 0.00 56 1013.9
20260506024500 48 0.0 0.0 0.00 0.00 0.00 56 1013.9
20260506023915 48 0.0 0.0 0.00 0.00 0.00 55 1013.8
20260506023331 49 0.0 0.0 0.00 0.00 0.00 55 1013.8
20260506022746 49 0.0 0.0 0.00 0.00 0.00 55 1013.7
20260506022201 49 0.0 0.0 0.00 0.00 0.00 55 1013.7
20260506021616 49 0.0 0.0 0.00 0.00 0.00 55 1013.7
20260506021032 49 0.0 0.0 0.00 0.00 0.00 55 1013.8
20260506020447 49 0.0 0.0 0.00 0.00 0.00 55 1013.7
20260506015902 49 0.0 0.0 0.00 0.00 0.00 55 1013.7
20260506015317 49 0.0 0.0 0.00 0.00 0.00 56 1013.6
20260506014732 49 0.0 0.0 0.00 0.00 0.00 56 1013.6
20260506014147 49 0.0 0.0 0.00 0.00 0.00 56 1013.6
20260506013603 49 0.0 0.0 0.00 0.00 0.00 56 1013.6
20260506013018 49 0.0 0.0 0.00 0.00 0.00 55 1013.6
20260506012432 50 0.0 0.0 0.00 0.00 0.00 56 1013.6
20260506011847 50 0.0 0.0 0.00 0.00 0.00 55 1013.6
20260506011302 50 0.0 0.0 0.00 0.00 0.00 55 1013.6
20260506010712 50 0.0 0.0 0.00 0.00 0.00 55 1013.6
20260506010128 50 0.0 0.0 0.00 0.00 0.00 55 1013.6
20260506005543 50 0.0 0.0 0.00 0.00 0.00 55 1013.6
20260506004958 50 0.0 0.0 0.00 0.00 0.00 55 1013.6
20260506004414 51 0.0 0.0 0.00 0.00 0.00 55 1013.5
20260506003830 51 0.0 0.0 0.00 0.00 0.00 55 1013.5
20260506003245 51 0.0 0.0 0.00 0.00 0.00 55 1013.4
20260506002700 51 0.0 0.0 0.00 0.00 0.00 55 1013.5
20260506002115 51 0.0 0.0 0.00 0.00 0.00 55 1013.4
20260506001531 51 0.0 0.0 0.00 0.00 0.00 54 1013.4
20260506000946 51 0.0 0.0 0.00 0.00 0.00 54 1013.5
20260506000402 51 0.0 0.0 0.00 0.00 0.00 55 1013.4
20260505235817 51 0.0 0.0 0.00 0.00 0.00 55 1013.4
20260505235232 51 0.0 0.0 0.00 0.00 0.00 55 1013.3
20260505234648 52 0.0 0.0 0.00 0.00 0.00 55 1013.3
20260505234103 52 0.0 0.0 0.00 0.00 0.00 55 1013.3
20260505233519 52 0.0 0.0 0.00 0.00 0.00 55 1013.3
20260505232934 52 0.0 0.0 0.00 0.00 0.00 55 1013.3
20260505232348 52 0.0 0.0 0.00 0.00 0.00 55 1013.3
20260505231803 52 0.0 0.0 0.00 0.00 0.00 55 1013.4
20260505231219 52 0.0 0.0 0.00 0.00 0.00 55 1013.4
20260505230635 52 0.0 0.0 0.00 0.00 0.00 54 1013.4
20260505230050 52 0.0 0.0 0.00 0.00 0.00 54 1013.5
20260505225505 53 0.0 0.0 0.00 0.00 0.00 55 1013.5
20260505224916 53 0.0 0.0 0.00 0.00 0.00 54 1013.4
20260505224332 53 0.0 0.0 0.00 0.00 0.00 55 1013.4
20260505223748 53 0.0 0.0 0.00 0.00 0.00 54 1013.5
20260505223202 53 0.0 0.0 0.00 0.00 0.00 54 1013.5
20260505222618 53 0.0 0.0 0.00 0.00 0.00 54 1013.5
20260505222033 53 0.0 0.0 0.00 0.00 0.00 55 1013.5
20260505221448 53 0.0 0.0 0.00 0.00 0.00 54 1013.6
20260505220903 54 0.0 0.0 0.00 0.00 0.00 54 1013.6
20260505220319 54 0.0 0.0 0.00 0.00 0.00 54 1013.6
20260505215734 54 0.0 0.0 0.00 0.00 0.00 54 1013.6
20260505215149 54 0.0 0.0 0.00 0.00 0.00 54 1013.6
20260505214605 54 0.0 0.0 0.00 0.00 0.00 55 1013.6
20260505214020 54 0.0 0.0 0.00 0.00 0.00 54 1013.6
20260505213435 54 0.0 0.0 0.00 0.00 0.00 54 1013.6
20260505212850 54 0.0 0.0 0.00 0.00 0.00 54 1013.6
20260505212306 55 0.0 0.0 0.00 0.00 0.00 54 1013.7
20260505211720 55 0.0 0.0 0.00 0.00 0.00 54 1013.6
20260505211135 55 0.0 0.0 0.00 0.00 0.00 54 1013.7
20260505210551 55 0.0 0.0 0.00 0.00 0.00 54 1013.8
20260505210001 55 0.0 0.0 0.00 0.00 0.00 54 1013.8
20260505205417 55 0.0 0.0 0.00 0.00 0.00 54 1013.6
20260505204832 55 0.0 0.0 0.00 0.00 0.00 54 1013.5
20260505204246 56 0.0 0.0 0.00 0.00 0.00 54 1013.5
20260505203701 56 0.0 0.0 0.00 0.00 0.00 54 1013.4
20260505203116 56 0.0 0.0 0.00 0.00 0.00 54 1013.5
20260505202532 56 0.0 0.0 0.00 0.00 0.00 53 1013.5
20260505201948 56 0.0 0.0 0.00 0.00 0.00 53 1013.4
20260505201403 56 0.0 0.0 0.00 0.00 0.00 53 1013.4
20260505200818 56 0.0 0.0 0.00 0.00 0.00 53 1013.4
20260505200234 56 0.0 0.0 0.00 0.00 0.00 53 1013.4
20260505195649 56 0.0 0.0 0.00 0.00 0.00 53 1013.4
20260505195104 56 0.0 0.0 0.00 0.00 0.00 53 1013.4
20260505194519 56 0.0 0.0 0.00 0.00 0.00 52 1013.3
20260505193934 57 0.0 0.0 0.00 0.00 0.00 53 1013.3
20260505193349 57 0.0 0.0 0.00 0.00 0.00 52 1013.2
20260505192805 57 0.0 0.0 0.00 0.00 0.00 52 1013.2
20260505192212 57 0.0 0.0 0.00 0.00 0.00 53 1013.3
20260505191627 58 0.0 0.0 0.00 0.00 0.00 52 1013.2
20260505191042 58 0.0 0.0 0.00 0.00 0.00 52 1013.3
20260505190457 58 0.0 0.0 0.00 0.00 0.00 52 1013.2
20260505185913 58 0.0 0.0 0.00 0.00 0.00 51 1013.2
20260505185328 58 0.0 0.0 0.00 0.00 0.00 51 1013.2
20260505184743 58 0.0 0.0 0.00 0.00 0.00 51 1013.1
20260505184159 59 0.0 0.0 0.00 0.00 0.00 51 1013.2
20260505183613 59 0.0 0.0 0.00 0.00 0.00 50 1013.2
20260505183029 59 0.0 0.0 0.00 0.00 0.00 50 1013.2
20260505182445 60 0.0 0.0 0.00 0.00 0.00 50 1013.1
20260505181846 60 0.0 0.0 0.00 0.00 0.00 50 1013.1
20260505181302 60 0.0 0.0 0.00 0.00 0.00 50 1013.0
20260505180717 60 0.0 0.0 0.00 0.00 0.00 50 1012.8
20260505180133 60 0.0 0.0 0.00 0.00 0.00 50 1012.8
20260505175549 61 0.0 0.0 0.00 0.00 0.00 49 1012.8
20260505174955 61 0.0 0.0 0.00 0.00 0.00 49 1012.8
20260505174410 61 0.0 0.0 0.00 0.00 0.00 48 1012.8
20260505173825 61 0.0 0.0 0.00 0.00 0.00 47 1012.7
20260505173241 62 0.0 0.0 0.00 0.00 0.00 46 1012.7
20260505172656 62 0.0 0.0 0.00 0.00 0.00 45 1012.6
20260505172111 62 0.0 0.0 0.00 0.00 0.00 45 1012.6
20260505171526 62 0.0 0.0 0.00 0.00 0.00 44 1012.7
20260505170942 62 0.0 0.0 0.00 0.00 0.00 42 1012.6
20260505170357 62 0.0 0.0 0.00 0.00 0.00 43 1012.6
20260505165812 63 0.0 0.0 0.00 0.00 0.00 43 1012.6
20260505165228 63 0.0 0.0 0.00 0.00 0.00 41 1012.7
20260505164642 63 0.0 0.0 0.00 0.00 0.00 42 1012.8
20260505164057 63 0.0 0.0 0.00 0.00 0.00 43 1012.8
20260505163511 63 0.0 0.0 0.00 0.00 0.00 43 1012.8
20260505162926 64 0.0 0.0 0.00 0.00 0.00 43 1012.8
20260505162342 64 0.0 0.0 0.00 0.00 0.00 42 1012.8
20260505161757 64 0.0 0.0 0.00 0.00 0.00 42 1012.6
20260505161213 64 0.0 0.0 0.00 0.00 0.00 42 1012.4
20260505160628 64 0.0 0.0 0.00 0.00 0.00 42 1012.4
20260505153159 65 0.0 0.0 0.00 0.00 0.00 41 1012.5
20260505152614 65 0.0 0.0 0.00 0.00 0.00 41 1012.3
20260505152030 66 0.0 0.0 0.00 0.00 0.00 41 1012.1
20260505151445 66 0.0 0.0 0.00 0.00 0.00 40 1012.0
20260505150859 66 0.0 0.0 0.00 0.00 0.00 40 1012.0
20260505140603 74 0.0 0.0 0.00 0.00 0.00 29 1012.6
20260505130248 76 0.0 0.0 0.00 0.00 0.00 27 1012.2
20260505124520 76 0.0 0.0 0.00 0.00 0.00 27 1012.3
20260505123934 76 0.0 0.0 0.00 0.00 0.00 27 1012.4
20260505123349 76 0.0 0.0 0.00 0.00 0.00 26 1012.5
20260505122804 76 0.0 0.0 0.00 0.00 0.00 27 1012.5
20260505122219 76 0.0 0.0 0.00 0.00 0.00 27 1012.6
20260505121634 75 0.0 0.0 0.00 0.00 0.00 26 1012.7
20260505121049 75 0.0 0.0 0.00 0.00 0.00 27 1012.7
20260505120504 75 0.0 0.0 0.00 0.00 0.00 26 1012.8
20260505115919 75 0.0 0.0 0.00 0.00 0.00 26 1012.8
20260505115333 75 0.0 0.0 0.00 0.00 0.00 27 1012.8
20260505114748 76 0.0 0.0 0.00 0.00 0.00 28 1012.9
20260505114204 76 0.0 0.0 0.00 0.00 0.00 27 1013.0
20260505113048 75 0.0 0.0 0.00 0.00 0.00 28 1013.0
20260505112502 75 0.0 0.0 0.00 0.00 0.00 28 1013.1
20260505111917 75 0.0 0.0 0.00 0.00 0.00 28 1013.1
20260505111332 75 0.0 0.0 0.00 0.00 0.00 27 1013.1
20260505110747 74 0.0 0.0 0.00 0.00 0.00 27 1013.3
20260505110201 74 0.0 0.0 0.00 0.00 0.00 28 1013.3